UmeLogo
   UmeNom


Informaci general   Notcies, activitats   Marxa del Garraf   Articles   Contactar   

Marxa del Garraf 2013 :: Llista de persones qualificades :


Garraf 21
Llista ordenada pel temps

 

Llegenda ordre RAS= ordre d'arribada relativa al sexe
ordre ABS= ordre d'arribada absoluta

tempsnomdorsalordre
RAS
ordre
ABS
km/hmin/km
01:54:00Gomez Garcia, Xavid 12781r1r11,05 km5:25 min saltar
01:58:00Lpez Hernndez, Davidd 13322n2n10,68 km5:37 min saltar saltar
02:07:00MARTN SALINAS, DAVIDd 15433r3r9,92 km6:2 min
02:07:00MOLINA BELTRAN, GUILLERMOd 15423r3r9,92 km6:2 min
02:08:00Serrano Nicolas, Benitod 1115559,84 km6:5 min
02:08:00Valero Ruiz, Moissd 1161559,84 km6:5 min
02:09:00CAMPRUBI TRIAS, ARNAUd 1564779,77 km6:8 min
02:09:00SOLINA ARNAU, MARCd 1577779,77 km6:8 min
02:11:00PIOL MANZANO, CARLOSd 1544999,62 km6:14 min
02:13:00Niamh, Ni Chuaigd 13851a10a9,47 km6:19 min
02:15:00Monge Moreno, Aureliod 137910119,33 km6:25 min
02:18:00Navarro Mula, Jordid 133011129,13 km6:34 min
02:22:00de San Eusebio Hernandez, Domingod 133112138,87 km6:45 min
02:23:00Lasqubar de la Torre, Jos Marad 111413148,81 km6:48 min
02:23:00Reyes Ramirez, Franciscod 120113148,81 km6:48 min
02:24:00Leon Canovaas, Siscud 140415168,75 km6:51 min
02:25:00Elias Trivio, Manueld 134716178,69 km6:54 min
02:25:00Pea Diaz, Davidd 119916178,69 km6:54 min
02:26:00HARO SEGURA, ISAIASd 113818198,63 km6:57 min
02:27:00Benez Fernndez, Martd 131419208,57 km7 min
02:27:00Carretero Ruiz, Davidd 114219208,57 km7 min
02:27:00Trujillo Rodriguez, Santiagod 145519208,57 km7 min
02:28:00Aranda Gonzalez, Jordid 118422238,51 km7:2 min
02:28:00Insa Gelpi, Jorged 132922238,51 km7:2 min
02:29:00Dassonville, Lucyd 13782a25a8,46 km7:5 min
02:32:00Abos Gimeno, Jose Manueld 139524268,29 km7:14 min
02:33:00GAMEZ ESCOT, FRANCISCOd 159525278,24 km7:17 min
02:35:18Pruna Francesch, Pilard 12443a28a8,11 km7:23 min
02:35:58Salt Lpez, Davidd 123126298,08 km7:25 min
02:36:47Goyard, Pierred 129827308,04 km7:27 min saltar saltar
02:38:35Perez Adalid, Javierd 148328317,95 km7:33 min saltar saltar
02:39:12Planas Montserrat, Marcd 122029327,91 km7:34 min
02:39:47MART REDIA, LUCASd 151830337,89 km7:36 min
02:40:29GABALDN GARCA, JULIANd 160331347,85 km7:38 min
02:40:56Turull Castellet, Jordid 140332357,83 km7:39 min
02:41:13Snchez Cardeosa, Vctord 143233367,82 km7:40 min
02:41:43DIAZ ALONSO, ALEXd 155934377,79 km7:42 min
02:41:51Ribas Marn, Joand 116835387,78 km7:42 min
02:41:55Salgado Lavado, Juan Carlosd 131236397,78 km7:42 min
02:41:58Iraheta Gallegos, Jose Natividadd 146437407,78 km7:42 min
02:42:00Corral Rodriguez, Ramond 112338417,78 km7:42 min
02:43:22RUIZ FERNANDEZ, ALBERTd 161339427,71 km7:46 min
02:43:26Thienemann Lpez, Saschad 110940437,71 km7:46 min
02:43:37Merino Palomar, Albertod 111841447,7 km7:47 min
02:44:16Munne Saperas, Joand 121842457,67 km7:49 min
02:44:17Rosa Martn, Juan Antoniod 149043467,67 km7:49 min
02:45:28GARCA CASADO, RAFAELd 151044477,61 km7:52 min
02:46:51Vegas Montero, Javierd 142945487,55 km7:56 min
02:47:04Gascon Rius, Jesusd 126646497,54 km7:57 min
02:47:43CHAVES LORENZO, JOSEd 131747507,51 km7:59 min
02:47:56LATORRE SOLDEVILA, DIEUNAd 15524a51a7,5 km7:59 min
02:48:05LATORRE RUBIO, TOMAS FRANCISCOd 155448527,5 km8 min
02:48:10Herrera Castillo, Sergiod 136349537,49 km8 min
02:48:11Carretero Ruiz, Juliand 112550547,49 km8 min
02:48:15TARONGI ALARCN, ANGELAd 15635a55a7,49 km8 min
02:48:22GMEZ GONZLEZ, ANAd 16146a56a7,48 km8:1 min
02:48:41INS CONDE, JUANd 150951577,47 km8:1 min
02:48:47Guerrero Caballero, Santiagod 111352587,47 km8:2 min
02:48:56Silvestre Morata, lexd 148753597,46 km8:2 min
02:49:01Alvarez Salcedo, Rafaeld 123454607,45 km8:2 min saltar saltar
02:49:06Angls Carrera, Josep Mariad 121555617,45 km8:3 min saltar saltar
02:49:12Romeral Ballester, Gemmad 13017a62a7,45 km8:3 min
02:49:24Prez Garzn, Carlosd 110156637,44 km8:3 min
02:49:45ORTEGA VADILLO, KIMd 131857647,42 km8:5 min
02:50:00ALBAIGS VIDAL, MARCd 157258657,41 km8:5 min
02:50:04Melero Carmona, Javierd 149259667,41 km8:5 min
02:50:16Brunet Vicente, Jordid 135760677,4 km8:6 min
02:50:33PEY ORTEGA, XAVIERd 153161687,39 km8:7 min
02:50:36Solanes Casanovas, Sergid 130562697,39 km8:7 min
02:50:59Colorado Gomez, Manuel Adolfod 136763707,37 km8:8 min
02:51:15RAMETTA, MARCOd 139764717,36 km8:9 min
02:51:54Garcia Agudo, Tomas Jesusd 125765727,33 km8:11 min
02:51:57URIGEN GAVILAN, LLLUISd 125866737,33 km8:11 min
02:53:07Calomarde Piqueras, Angeld 120367747,28 km8:14 min
02:53:19Villanueva Orgaz, Franciscod 142168757,27 km8:15 min
02:53:22Gallardo Franganillo, Emilio Josd 129969767,27 km8:15 min
02:53:25Fernandez Lozano, Oscard 145970777,27 km8:15 min
02:53:29Liria Romero, Jordid 133371787,26 km8:15 min
02:53:47Domnech Codina, Llusd 114572797,25 km8:16 min
02:53:49Herrera Navarro, Juan Manueld 149973807,25 km8:16 min
02:53:53ESCOFET DOMNECH, JOANd 151474817,25 km8:16 min
02:55:25Montan Escobar, Ana Mariad 13428a82a7,18 km8:21 min
02:56:46Snchez Moreno, Francisco Javierd 137675837,13 km8:25 min
02:56:58BARRIOS MARTN, FRANd 156676847,12 km8:25 min
02:57:29Angls Folch, Martad 12119a85a7,1 km8:27 min
02:58:03Gonzlez Castellar, Davidd 122677867,08 km8:28 min
02:58:36Aserrador, Juan Claudiod 127578877,05 km8:30 min
02:58:46Perez Navarro, Carlosd 110779887,05 km8:30 min
02:59:40CABALLERO ANENTO, ARNAUd 142880897,01 km8:33 min
02:59:45Barreiro Gutierrez, Davidd 129481907,01 km8:33 min saltar saltar
03:00:04Gonzlez Cabello, Emiliod 140282917 km8:34 min saltar saltar
03:00:18Amor Garcia, Albertod 119583926,99 km8:35 min
03:00:25Herrera Pujol, Gemmad 140110a93a6,98 km8:35 min
03:01:35CESTER MART, JAUMEd 139084946,94 km8:38 min
03:01:41Niella Casas, Francescd 117885956,94 km8:39 min
03:02:26Cobos Serrano, Javierd 138686966,91 km8:41 min
03:02:29Garcia Garcia, Antoniod 135187976,9 km8:41 min
03:02:34Viaplana Masclans, Judithd 130611a98a6,9 km8:41 min
03:03:01Carballar Garcia, Aitord 135088996,88 km8:42 min
03:04:00Garcia Izquierdo, Yolandad 149112a100a6,85 km8:45 min
03:04:47Bellido Monterrubio, Carlosd 1320891016,82 km8:47 min
03:04:52Alcaide Daz, Marinod 1489901026,82 km8:48 min
03:05:08Garcia Ferran, Helenad 122413a103a6,81 km8:48 min
03:05:18Rovira Lpez, Lorenad 128614a104a6,8 km8:49 min
03:05:31Comeron Ramos, Susanad 133515a105a6,79 km8:50 min
03:06:14Hernandez Plaza, Yolandad 134816a106a6,77 km8:52 min
03:07:41Agrs Hidalgo, Davidd 1267911076,71 km8:56 min
03:08:08Molina Garca, Martad 137117a108a6,7 km8:57 min
03:08:38PANA RODRIGUEZ, MIGUEL NGELd 1584921096,68 km8:58 min
03:08:57ESTEBAN ORTIZ, PLACIDOd 1522931106,67 km8:59 min
03:10:42Garcia Marin, Rauld 1373941116,61 km9:4 min
03:10:43Pelegrin Roca, Maneld 1207951126,61 km9:4 min
03:10:48Pelegrin Navas, Axeld 1205961136,6 km9:5 min
03:10:52MRQUEZ DELGADO, JULINd 1532971146,6 km9:5 min
03:11:01Armengol Santacreu, Roserd 121218a115a6,6 km9:5 min
03:11:04Gmez Merino, Joand 1216981166,59 km9:5 min
03:11:27Valenzuela Gonzalez, Albertd 1444991176,58 km9:7 min
03:12:01TRIAS FONT, TERESAd 156719a118a6,56 km9:8 min
03:12:15VILL GRACIA, MIQUELd 15651001196,55 km9:9 min
03:12:26NOGUERA JULIN, ANTONId 14811011206,55 km9:9 min saltar saltar
03:12:35NOGUERA PREZ, ROGERd 14781021216,54 km9:10 min saltar saltar
03:14:13Real Vispo, Victoriad 110220a122a6,49 km9:14 min
03:14:23Garca-Tizn Sanchez, Rauld 11081031236,48 km9:15 min
03:14:25LEAL TORRES, LUISd 15791041246,48 km9:15 min
03:14:28Fernandez Ruiz, Juand 12701051256,48 km9:15 min
03:14:36Monfort Sanz, Sergid 12651061266,47 km9:16 min
03:15:06Garca Prieto, Mara Jacobad 133421a127a6,46 km9:17 min
03:15:19Carrascal Beltrn, Davidd 12961071286,45 km9:18 min
03:15:32Farrs Sbado, Leandrod 11981081296,44 km9:18 min
03:16:02Moreno Blanco, Antoniod 13391091306,43 km9:20 min
03:16:14Fernandez Segura, Danield 13411101316,42 km9:20 min
03:16:20Toledo Calderon, Jose Vicented 14711111326,42 km9:20 min
03:16:42Elias Trivio, Montserratd 133822a133a6,41 km9:22 min
03:17:04Domnech Monfort, Meritxelld 114723a134a6,39 km9:23 min
03:17:34DIAZ TIRADO, MANUELd 13191121356,38 km9:24 min
03:18:05Esteve Salvany, Albertd 12041131366,36 km9:25 min
03:18:10Campuzano Canades, Giselad 120024a137a6,36 km9:26 min
03:18:30Noble Ylarduya, Geraldined 141425a138a6,35 km9:27 min
03:19:22PEREZ CALZADA, JUAN PEDROd 16021141396,32 km9:29 min
03:19:38Llopart Ravetllat, Gemmad 112126a140a6,31 km9:30 min
03:19:42Llopart Codina, Emilid 13081151416,31 km9:30 min
03:20:24Rosa Martin, Angeld 11431161426,29 km9:32 min
03:20:28MUOZ GARCIA, JOSE MANUELd 15711171436,29 km9:32 min
03:21:11Gmez Blanco, Jos Javierd 13431181446,26 km9:34 min
03:22:14DE LOS SANTOS IBORRA, MONTSERRATd 138727a145a6,23 km9:37 min
03:22:30Martin Caadell, Fernandod 13461191466,22 km9:38 min
03:22:36CONESA NAVARRO, SERGIOd 15781201476,22 km9:38 min
03:24:03RIO GARCA, ROSAd 155728a148a6,17 km9:43 min
03:24:48MORA CALAHORRO, FCO. JESSd 15581211496,15 km9:45 min
03:24:57Rodero Blnquez, Manueld 12901221506,15 km9:45 min saltar saltar
03:25:01de Ruiter, Maya R.d 117029a151a6,15 km9:45 min saltar saltar
03:25:11LPEZ MONTIEL, ISABELd 114830a152a6,14 km9:46 min
03:25:14Perez Castro, Juan Pedrod 12611231536,14 km9:46 min
03:25:21Hernandez Sierra, Antoniod 12621241546,14 km9:46 min
03:25:36BELTRN SERRANO, MARA JOSd 138831a155a6,13 km9:47 min
03:27:50Flotats Parera, Baldirid 14451251566,06 km9:53 min
03:27:52PELOCHE OSUNA, JUAN CARLOSd 15961261576,06 km9:53 min
03:28:00Barreada Anton, Juan Antoniod 14601271586,06 km9:54 min
03:28:24Bautista Alonso, Jessicad 126332a159a6,05 km9:55 min
03:28:25Romero Gomez, Angel Luisd 14931281606,05 km9:55 min
03:28:33Beindorf, Simoned 149433a161a6,04 km9:55 min
03:28:42Santatala Morales, Ferrand 15001291626,04 km9:56 min
03:29:10MUOZ MARTOS, JOAQUINd 15821301636,02 km9:57 min
03:29:27LARRUY GILABERT, JORDId 15701311646,02 km9:58 min
03:30:32ORTEGA MARIN, SERGIOd 15941321655,98 km10:1 min
03:30:38Benedicto Cabrera, Markd 11601331665,98 km10:1 min
03:30:40Bericat Gmez, Sirad 147434a167a5,98 km10:1 min
03:30:41Amaya Travaglia, Cristinad 147335a168a5,98 km10:1 min
03:31:00Molina Garcia, Isabeld 119436a169a5,97 km10:2 min
03:31:34Cervera Ort, Vicented 11101341705,96 km10:4 min
03:31:52MINGUEZ VALLE, JORGE ANDRSd 15741351715,95 km10:5 min
03:34:54Miras Fisica, Aliciad 110337a172a5,86 km10:13 min
03:34:59Gonzalez Gonzalez, Jesus Ramond 11061361735,86 km10:14 min
03:35:01Farrs Trullols, Rogerd 13071371745,86 km10:14 min
03:35:05Duran Calbet, Albertd 14191381755,86 km10:14 min
03:36:06Torrubia, Josed 12131391765,83 km10:17 min
03:36:20Rodrguez Luque, Sergiod 11191401775,82 km10:18 min
03:36:26Hernandez Garcia, Yerayd 12601411785,82 km10:18 min
03:38:08SEGURA BERMEJO, MANELd 13401421795,78 km10:23 min
03:38:14GARCIA SEGARRA, JOSE MIGUELd 12811431805,77 km10:23 min saltar saltar
03:40:06MONTALVO MONTALVO, ANTONId 15731441815,72 km10:28 min saltar saltar
03:42:19Ferre Cano, Antoniod 11241451825,67 km10:35 min
03:42:23Ferre Lopez, Juan Antoniod 11271461835,67 km10:35 min
03:42:30Rodriguez Vera, Estherd 127338a184a5,66 km10:35 min
03:42:35Esteban Amat, Lluisd 12761471855,66 km10:35 min
03:42:59Jimenez Garces, Danield 14521481865,65 km10:37 min
03:43:26Alcaraz Crespo, Anabeld 121439a187a5,64 km10:38 min
03:44:47Segura Sorribes, Miguel Angeld 14611491885,61 km10:42 min
03:44:57Lozano Bri, Rafad 14631501895,6 km10:42 min
03:46:03Bellard, Fredericd 12491511905,57 km10:45 min
03:47:05Martinez Lopez, Sergiod 11331521915,55 km10:48 min
03:47:07Tejada Martinez, Martad 123040a192a5,55 km10:48 min
03:47:35COMAS CASANY, JOSEPd 161241a193a5,54 km10:50 min
03:49:03PI RIGOLA, XAVIERd 15411531945,5 km10:54 min
03:49:10UGALDE PASCUAL, ANDREUd 15601541955,5 km10:54 min
03:49:16GALIANO CENTELLES, JORDId 15611551965,5 km10:55 min
03:49:19Martinez Veiga, Maria Josed 120242a197a5,49 km10:55 min
03:51:02Lorenzo Delgado, Taniad 124143a198a5,45 km11 min
03:51:40Pedragosa Figueras, Carlad 146844a199a5,44 km11:1 min
03:51:43Martinez Amors, Gerardd 14721562005,44 km11:2 min
03:52:22PEREZ GARCA, M TERESAd 154745a201a5,42 km11:3 min
03:52:25TORREMADE BORGES, JORDId 15481572025,42 km11:4 min
03:53:51Hernandez Suarez, Domingod 12591582035,39 km11:8 min
03:53:57Moreno Moreno, Juan Manueld 14951592045,39 km11:8 min
03:55:47CASTRO PUNTERO, JESSd 16081602055,34 km11:13 min
03:56:07de la Torre Vega, Charod 146546a206a5,34 km11:14 min
03:56:13Rovira Bernad, Albertd 14621612075,33 km11:14 min
03:56:17Sanchez Haza, Alfonsod 14691622085,33 km11:15 min
03:56:49LERA PUNTERO, LAIAd 160747a209a5,32 km11:16 min
03:57:28CIA ARRIAZA, IRENEd 159048a210a5,31 km11:18 min saltar saltar
03:57:31Roca Girona, Jordid 13581632115,3 km11:18 min saltar saltar
03:57:34Navarro Sanchez, Francescd 13561642125,3 km11:18 min
03:58:47Lpez, Salvadord 12471652135,28 km11:22 min
03:58:58Fernandez Alvarez, Oscard 14881662145,27 km11:22 min
03:59:57Ortega Tamayo, Raqueld 132449a215a5,25 km11:25 min
04:02:41Montserrat Fuster, Josepd 11441672165,19 km11:33 min
04:03:13Garcia Granados, Ismael Antoniod 11411682175,18 km11:34 min
04:04:32BESGA MONTIEL, JOS ANTONIOd 15451692185,15 km11:38 min
04:04:55Sanchez Sanchez, Evad 145750a219a5,14 km11:39 min
04:05:17Pazos Fernndez, Joand 14061702205,14 km11:40 min
04:05:19Pazos Conejo, Francisco Javierd 14131712215,14 km11:40 min
04:05:24Gonzlez Barahona, Jos Antoniod 14331722225,13 km11:41 min
04:05:39Soteras Morera, Ferriold 14401732235,13 km11:41 min
04:06:15Segura Sorribes, Margad 145851a224a5,12 km11:43 min
04:06:19Fernndez Gilbert, Albertd 11571742255,12 km11:43 min
04:06:52Carbo Tomas, Montserratd 119252a226a5,1 km11:45 min
04:06:59RAMELLS GALIMANY, CARLAd 155153a227a5,1 km11:45 min
04:07:03SOLDEVILA COSP, MONICAd 155354a228a5,1 km11:45 min
04:07:05SANCHEZ ALBERT, JOSE MANUELd 11931752295,1 km11:45 min
04:07:19Sanchez Garcia, Jose Luisd 13261762305,09 km11:46 min
04:08:14Buiza, Guillermod 14391772315,08 km11:49 min
04:10:04Flotats Roses, Enricd 14471782325,04 km11:54 min
04:10:05Aguilar Gomez, Silviad 142455a233a5,04 km11:54 min
04:10:07Carmona Jimenez, Sandrad 142556a234a5,04 km11:54 min
04:10:27CABALLERO ADELL, CARLOSd 14271792355,03 km11:55 min
04:10:31ANENTO FERNANDEZ, BELINDAd 142657a236a5,03 km11:55 min
04:14:52PI RIERA, ESTEVEd 15401802374,94 km12:8 min
04:15:46Gonzalez, Jhonyd 13701812384,93 km12:10 min
04:16:03Fernndez Gilbert, guedad 115258a239a4,92 km12:11 min
04:16:33Gisbert Romeu, Rafaeld 14411822404,91 km12:13 min saltar saltar
04:16:36Martnez Padilla, Antoniod 14341832414,91 km12:13 min saltar saltar
04:17:10Navarro Fernndez, Franciscod 12931842424,9 km12:14 min
04:17:38Benitez Gallardo, Juan Luisd 12821852434,89 km12:16 min
04:18:51Crisol Ario, Alejandrod 11801862444,87 km12:19 min
04:18:52Carbonell Cuadras, Nriad 118159a245a4,87 km12:19 min
04:21:25Gimnez Gallofr, Joaquim Lluisd 14851872464,82 km12:26 min
04:23:11Bertran Cases, Montsed 141060a247a4,79 km12:31 min
04:23:13Martnez Marn, Marisold 139261a248a4,79 km12:32 min
04:23:18Moraleda Asensio, Sandrad 137262a249a4,79 km12:32 min
04:26:00Artero Rodriguez, Begoad 128863a250a4,74 km12:39 min
04:26:01Moreno Ayala, Gloriad 129164a251a4,74 km12:40 min
04:26:06Asensio Ferradas, Maria del Rosariod 128465a252a4,74 km12:40 min
04:26:09Arroyo Dons, Gloriad 128966a253a4,73 km12:40 min
04:26:54Ramirez Vazquez, Juan Josed 11491882544,72 km12:42 min
04:27:19LORENTE CALLEJAS, FERNANDOd 15041892554,71 km12:43 min
04:27:27BELVIS EMBID, ESTERd 151767a256a4,71 km12:44 min
04:27:45Domnech Garcia, Paulad 136968a257a4,71 km12:45 min
04:27:47Valero Ayala, Laurad 137769a258a4,71 km12:45 min
04:27:57JOV BERGA, FRANCESCd 15031902594,7 km12:45 min
04:28:01BAENA FERNNDEZ, JOS Md 15021912604,7 km12:45 min
04:28:09Reyes Lpez, Simnd 13961922614,7 km12:46 min
04:28:18MORENO QUESADA, MARIA DEL PILARd 152670a262a4,7 km12:46 min
04:30:04Rodrguez Garrido, Eduardod 12091932634,67 km12:51 min
04:31:00Rodrguez Cruz, Joand 12101942644,65 km12:54 min
04:32:22Arias Palacios, Maria Josed 117271a265a4,63 km12:58 min
04:32:29Romero Lora, Almudenad 142072a266a4,62 km12:58 min
04:32:31Benavides Lopez, Albertod 11291952674,62 km12:58 min
04:32:57Reyes Lpez, Isabeld 117373a268a4,62 km12:59 min
04:33:03Espina Gmez, Davidd 11741962694,61 km13 min
04:33:26Reyes Llad, Danield 13991972704,61 km13:1 min saltar saltar
04:35:09Garcia Marti, Cristinad 136674a271a4,58 km13:6 min saltar saltar
04:35:12Lozano Rubio, Juan Antoniod 13651982724,58 km13:6 min
04:35:12Villena Pardo, Mayted 147575a273a4,58 km13:6 min
04:39:29FRANCS GARCA, PILARd 156876a274a4,51 km13:18 min
04:39:33LOMBARTE BEL, SILVIAd 119177a275a4,51 km13:18 min
04:40:17Mendoza Diaz, Lorenzod 16011992764,5 km13:20 min
04:41:00SIERRA RODRIGUEZ, EVAd 158178a277a4,48 km13:22 min
04:41:06NOGUERA PREZ, ENRICd 14792002784,48 km13:23 min
04:41:09PEREZ DUEAS, BELENd 147779a279a4,48 km13:23 min
04:43:04Martin Vico, Milcad 131080a280a4,45 km13:28 min
04:43:07Cuy Prat, Monterratd 120681a281a4,45 km13:28 min
04:43:43Benitez Fernandez, Sebastiand 13222012824,44 km13:30 min
04:43:43Prieto Muoz, Purificaciond 132382a282a4,44 km13:30 min
04:44:48Prez Lpez, Antoniod 13942022844,42 km13:33 min
04:46:43Peso Infante, Bernatd 11322032854,39 km13:39 min
04:47:10Verdeguer, Domingod 11642042864,39 km13:40 min
04:48:04Momot, Valeried 116383a287a4,37 km13:43 min
04:48:13Perez Delgado, Ana Mariad 140584a288a4,37 km13:43 min
04:48:58LARRUY CASADO, JORDId 15692052894,36 km13:45 min
04:49:46Keyer Coronado, Laurad 113485a290a4,35 km13:47 min
04:50:42Escalada Bericat, Jose Javierd 11202062914,33 km13:50 min
04:51:11Arrojo Quintas, Celsod 11042072924,33 km13:51 min
04:51:22Garcia Cerdan, M.rosad 125486a293a4,32 km13:52 min
04:51:25Santiago Porras, Manueld 12512082944,32 km13:52 min
04:52:20Jordn Gracia, Susanad 115587a295a4,31 km13:55 min
04:52:48Martos Carmona, Maneld 14432092964,3 km13:56 min
04:52:49Granel Dalmau, Martad 144288a297a4,3 km13:56 min
04:54:14SERRANO VIDAL, MIREIAd 143189a298a4,28 km14 min
04:54:15COMAS CODINA, LLORENd 14302102994,28 km14 min
04:54:23Sierra Navarro, Sergid 14802113004,28 km14:1 min saltar saltar
04:56:14Barquets Sole, Elenad 143790a301a4,25 km14:6 min saltar saltar
04:56:18Fornells Gonzalez, Ramon Antoniod 14382123024,25 km14:6 min
04:57:39Ortiz Ayala, Jordid 12532133034,23 km14:10 min
04:58:40LOSADA MAYORAL, ANGELd 16052143044,22 km14:13 min
04:58:42RUBIO LA TORRE, JORDId 16062153054,22 km14:13 min
05:00:16Custodio, Jordid 11792163064,2 km14:17 min
05:00:31VASANT GARANI, HARESHd 15872173074,19 km14:18 min
05:00:34MUOZ TORRERO GARCIA GIL, OSCARd 15882183084,19 km14:18 min
05:00:43RODRIGUEZ HERRERA, MAXIMOd 15892193094,19 km14:19 min
05:02:26RICHART GOM, HIPLITOd 15252203104,17 km14:24 min
05:02:51VYSOCKAJA, MARINAd 152991a311a4,16 km14:25 min
05:02:52FERRER VILADRICH, MARTAd 153092a312a4,16 km14:25 min
05:03:19Ivars Calvo, Placidad 145693a313a4,15 km14:26 min
05:03:28SANS LOPEZ, JORDId 15202213144,15 km14:27 min
05:05:24Lopez Saura, Carolinad 136194a315a4,13 km14:32 min
05:05:26LOPEZ ROMAN, SAGRARIOd 152195a316a4,13 km14:32 min
05:05:28SANS LPEZ, LAURAd 151996a317a4,12 km14:32 min
05:06:20Quintana Hidalgo, Martad 111797a318a4,11 km14:35 min
05:06:40Sanchez del Hierro, Maria Josed 137498a319a4,11 km14:36 min
05:06:44Verbena Pastor, Monicad 137599a320a4,11 km14:36 min
05:07:49Ortega Duro, Miguel ngeld 11162223214,09 km14:39 min
05:08:12Soriano Rudilla, Maria Cruzd 1268100a322a4,09 km14:40 min
05:08:13Gil Alsina, Amparod 1364101a323a4,09 km14:40 min
05:08:20Martinez Gracia, Albertd 11362233244,09 km14:40 min
05:08:47Lopez Saura, Sandrad 1359102a325a4,08 km14:42 min
05:09:16Moron Hermida, Mireiad 1252103a326a4,07 km14:43 min
05:10:22Casamayor Saiz, Nuriad 1169104a327a4,06 km14:46 min
05:11:10Muoz Merino, Franciscod 11712243284,05 km14:49 min
05:12:07Espert Ferrer, Jordid 12272253294,04 km14:51 min
05:12:10Espert Civico, Ericd 12282263304,04 km14:51 min saltar saltar
05:13:16Gomez Garca, Maria Virtudesd 1239105a331a4,02 km14:55 min saltar saltar
05:13:18Gonzalez Munuera, Oscard 12402273324,02 km14:55 min
05:13:35Gracia Mor, Xavid 12432283334,02 km14:55 min
05:13:38Hernandez Romero, Cristinad 1300106a334a4,02 km14:56 min
05:13:41Molist Codinachs, Elisabetd 1223107a335a4,02 km14:56 min
05:15:16Grimaldos Jimenez, Anad 1280108a336a4 km15 min
05:15:19Grimaldos Jimenez, Pilard 1279109a337a4 km15 min
05:15:58SOLIS AGUILERA, ASCENSINd 1583110a338a3,99 km15:2 min
05:16:00LPEZ SERRANO, ANTONIAd 1580111a339a3,99 km15:2 min
05:16:28Moreno Prieto, Jose Antoniod 11262293403,98 km15:4 min
05:16:33DOMINGUEZ MACIAS, ARANTZAZUd 1389112a341a3,98 km15:4 min
05:16:36Cepero Macias, Antonio Davidd 11972303423,98 km15:4 min
05:17:04CHECA GUARRO, ERIKAd 1135113a343a3,97 km15:5 min
05:19:06RAFALES HERNNDEZ, GERMANd 16112313443,95 km15:11 min
05:19:42DE LA MARIA UBEDA, RAFAELd 15232323453,94 km15:13 min
05:19:44TELLADO CHARINES, ROSA MARIAd 1524114a346a3,94 km15:13 min
05:19:56Llaurad Serra, Mireiad 1336115a347a3,94 km15:14 min
05:19:58Guilln Grau, Laiad 1337116a348a3,94 km15:14 min
05:19:59Jimnez Delgado, Pedrod 12372333493,94 km15:14 min
05:20:15Vilar Caadas, Franciscad 1393117a350a3,93 km15:15 min
05:20:18Garcia Arce, Juan Carlosd 14162343513,93 km15:15 min
05:21:16Monlleo Gonzalez, Jose Luisd 11622353523,92 km15:17 min
05:21:19Roca Andreu, Joaquimd 11652363533,92 km15:18 min
05:22:15Martinez Escalona, Davidd 13832373543,91 km15:20 min
05:22:35Durn Lpez, Josefad 1466118a355a3,91 km15:21 min
05:23:04Martinez Lopez, Luisd 13822383563,9 km15:23 min
05:23:11ARROYO CAMPOS, IRENEd 1384119a357a3,9 km15:23 min
05:23:27Badell Rodrguez, Martad 1196120a358a3,9 km15:24 min
05:23:28ECHEVARRIA MARTNEZ, EVAd 1353121a359a3,9 km15:24 min
05:23:31MAT MNDEZ, ANDRSd 13492393603,89 km15:24 min saltar saltar
05:23:32Rebollar Ingls, Josepd 14672403613,89 km15:24 min saltar saltar
05:23:36Rebollar Castaer, Teguenyd 14702413623,89 km15:24 min
05:24:09Perez Hernandez, Juliad 1496122a363a3,89 km15:26 min
05:24:13Alonso Lara, Jesusd 14982423643,89 km15:26 min
05:24:16Bartolome Gardeas, Miguel Angeld 11862433653,89 km15:26 min
05:24:16Jan Roncals, Javierd 11112433653,89 km15:26 min
05:24:24Almar Canet, Elenad 1105123a367a3,88 km15:26 min
05:24:24TORRUELLA BAGUR, MNICAd 1185123a367a3,88 km15:26 min
05:24:26Calatayud Drets, Patriciad 1246125a369a3,88 km15:26 min
05:24:54ROCHERA ABANC, TONId 15502453703,88 km15:28 min
05:24:58Capdet Temio, Juan Luisd 11582463713,88 km15:28 min
05:25:02RODENAS RODRIGUEZ, CARMEN MARIAd 1549126a372a3,88 km15:28 min
05:25:03Cambrera Meca, Yolandad 1159127a373a3,88 km15:28 min
05:25:08Guilera Terrasa, Jose Marad 12452473743,88 km15:28 min
05:25:11Esteban Perez, Gerardod 12562483753,87 km15:29 min
05:26:48Boada Valmaseda, Joand 12422493763,86 km15:33 min
05:26:48Poyatos, Unaid 12482503773,86 km15:33 min
05:27:23Bouza Veiga, Maria Montserratd 1131128a378a3,85 km15:35 min
05:28:52PLAZA QUESADA, M. ELENAd 1271129a379a3,83 km15:39 min
05:28:54MARRUGAT MASVIDAL, JOANd 12692513803,83 km15:39 min
05:29:07MARTINEZ BENET, JORDId 11512523813,83 km15:40 min
05:29:24Mata De Los Reyes, Franciscod 11372533823,83 km15:41 min
05:30:00ESPINOSA VENDRELL, ELENAd 1506130a383a3,82 km15:42 min
05:30:12DOMINGUEZ LLONGA, RAULd 16152543843,82 km15:43 min
05:30:14Martinez Simon, Angeld 11282553853,82 km15:43 min
05:30:15Crisol Giralt, Miqueld 14172563863,82 km15:43 min
05:30:17Crisol Herrando, Susannad 1418131a387a3,81 km15:43 min
05:33:25Pascual Hueso, Arturo Pablod 11672573883,78 km15:52 min
05:33:28Romeu Sol, Rosa Mariad 1166132a389a3,78 km15:52 min
05:33:36Frgols Villacreces, Davidd 14492583903,78 km15:53 min saltar saltar
05:33:36Bernab Gmez, Manuelad 1422133a391a3,78 km15:53 min saltar saltar
05:33:38Marn Garrido, Sandrad 1435134a392a3,78 km15:53 min
05:33:41Mir Varela, Giselad 1451135a393a3,78 km15:53 min
05:33:47Joglar Iglesias, Victor Clemented 14232593943,77 km15:53 min
05:34:45GARCA ALBALAT, ISABELd 1534136a395a3,76 km15:56 min
05:34:49CORONADO MARTNEZ, PILARd 1533137a396a3,76 km15:56 min
05:36:07Aran Sala, Mireiad 1217138a397a3,75 km16 min
05:36:59Galceran CAMACHO, LALId 1189139a398a3,74 km16:2 min
05:37:04FIGUEROLA GALLEGO, ALBERTd 15622603993,74 km16:3 min
05:37:05PALMA SOLANO, ALBERTOd 15932614003,74 km16:3 min
05:37:09PALMA SOLANO, CRISTIANd 15922624013,74 km16:3 min
05:37:22TERMENS QUEROL, SNIAd 1598140a402a3,73 km16:3 min
05:37:23IGUALADA PALS, NRIAd 1597141a403a3,73 km16:3 min
05:39:40Hurtado Olivera, Carmelod 13542634043,71 km16:10 min
05:39:41Plana Hernandez, Francisco Javierd 14092644053,71 km16:10 min
05:39:45MARTNEZ ENRIQUEZ, LAURAd 1556142a406a3,71 km16:10 min
05:39:45Moreno Valdericeda, Davidd 14122654063,71 km16:10 min
05:39:48Hurtado Olivera, Jorged 13622664083,71 km16:10 min
05:39:50CABRERIZO GARCA, VICTORd 15552674093,71 km16:10 min
05:39:50Nuez Caballero, Antonio Santiagod 14112674093,71 km16:10 min
05:39:50Presa Martinez, Antoniod 13132674093,71 km16:10 min
05:39:55ORDEZ FLORIDO, EVAd 1585143a412a3,71 km16:11 min
05:39:56Olivera Evole, Antoniod 13602704133,71 km16:11 min
05:39:58REDONDO MORA, MIGUELd 15862714143,71 km16:11 min
05:40:17Ramos Fontanet, Estherd 1264144a415a3,7 km16:12 min
05:40:50COMAS MARC, ELISENDAd 1505145a416a3,7 km16:13 min
05:41:09PAREJA JIMNEZ, MIGUELd 15352724173,69 km16:14 min
05:41:25Ruiz Hernandez, Maria Luzd 1391146a418a3,69 km16:15 min
05:41:29MUOZ SANTOS, JOSd 15392734193,69 km16:15 min
05:41:29VIDAL VALDERRAMA, GERARDd 15372734193,69 km16:15 min saltar saltar
05:41:30Prez Alarcn, Mari Carmed 1235147a421a3,69 km16:15 min saltar saltar
05:41:34LUQUE GMEZ, JOANAd 1536148a422a3,69 km16:15 min
05:41:35Arrebola Prez, Alexd 12502754233,69 km16:15 min
05:41:38BUZN LPEZ, NURIAd 1538149a424a3,69 km16:16 min
05:41:39Matas Montmany, Elisabetd 1187150a425a3,69 km16:16 min
05:41:42Carceller Esteban, Montserratd 1232151a426a3,69 km16:16 min
05:41:46Estorch Prez, M. Lourdesd 1208152a427a3,69 km16:16 min
05:43:59Prez Barral, Santid 13522764283,66 km16:22 min
05:44:55Garcia Company, Xavierd 14152774293,65 km16:25 min
05:45:00DOMNECH CODINA, MARGARITAd 1512153a430a3,65 km16:25 min
05:45:44ESCOFET COLL, JOANd 15112784313,64 km16:27 min
05:45:47ESCOFET DOMNECH, LAURAd 1513154a432a3,64 km16:27 min
05:49:55Monfort Sanz, M.mercedesd 1146155a433a3,6 km16:39 min
05:50:24Jan Roncals, Jordid 11122794343,6 km16:41 min
05:51:12Prez Martos, Maria del Pilard 1327156a435a3,59 km16:43 min
05:51:16Gil Gimnez, Antoniod 12832804363,59 km16:43 min
05:51:20Pi Amoedo, Jorged 13282814373,59 km16:43 min
05:52:11Galindo Mateus, Gemmad 1233157a438a3,58 km16:46 min
05:52:11Zurriaga Martin, Marcd 14502824393,58 km16:46 min
05:52:24Garcia Hign, Maria Gemad 1140158a440a3,58 km16:46 min
05:52:39Cruz Serrano, Carmend 1287159a441a3,57 km16:47 min
05:52:50Martin Noguerol, Esterd 1446160a442a3,57 km16:48 min
05:54:26Catal Caldern, Paud 14762834433,55 km16:52 min
05:54:29Len Coblas, Xavid 14362844443,55 km16:52 min
05:54:29Pedragosa Figueras, Estellad 1453161a444a3,55 km16:52 min
05:55:00Gaona Boixader, Esteved 12382854463,55 km16:54 min
05:55:00VINUESA MALDONADO, ANTONIOd 16042864473,55 km16:54 min
05:55:04Boixader Mart, Betlemd 1236162a448a3,55 km16:54 min
05:56:30Fernandez Guerra, Maria Jesusd 1190163a449a3,53 km16:58 min
05:56:31Llad Andrs, Montserratd 1398164a450a3,53 km16:58 min saltar saltar
05:56:33Farre Carrasco, Davidd 11882874513,53 km16:58 min saltar saltar
05:56:35Perez Victorio, Manuelad 1408165a452a3,53 km16:58 min
05:56:38Jimenez Garcia, Antoniod 14072884533,53 km16:58 min
05:59:06Ubia Aguilar, Aurorad 1274166a454a3,51 km17:6 min
05:59:16Escute Perez, Itziard 1484167a455a3,51 km17:6 min
05:59:46RODRIGUEZ ALVAREZ, M ELENAd 1508168a456a3,5 km17:7 min
06:00:03BESGA MONTIEL, BEGOAd 1546169a457a3,5 km17:8 min
06:00:44CORTES SNCHEZ, ARACELId 1507170a458a3,49 km17:10 min
06:02:58ESQUERDA SALVAD, SCARd 15282894593,47 km17:17 min
06:03:08GOMEZ MARTIN, ISABELd 1527171a460a3,47 km17:17 min
06:11:16Bellido Bellido, Rosariod 1380172a461a3,39 km17:40 min
06:11:18Cano Vegas, Maria Isabeld 1303173a462a3,39 km17:40 min
06:11:22Garcia Gordillo, Pepid 1381174a463a3,39 km17:41 min
06:11:25Cano Vegas, Maria Clotilded 1302175a464a3,39 km17:41 min
06:21:54MONFERRER MONFORT, LOURDESd 1315176a465a3,3 km18:11 min
06:21:57FERRADAL MORN, MARIA ANGELESd 13162904663,3 km18:11 min
06:22:37Escudero Mesas, Josd 11762914673,29 km18:13 min
06:23:03REBOLLO MARTNEZ, ARNAUd 15762924683,29 km18:14 min
06:23:07ROVIRA RINCN, ALEXd 15752934693,29 km18:14 min
06:23:43Espina Gmez, Estherd 1175177a470a3,28 km18:16 min
06:26:06ALEGRE BELMONTE, ANGELd 11562944713,26 km18:23 min
06:26:08MASIP BUSQUETS, MERCEd 1153178a472a3,26 km18:23 min
06:26:10LOPEZ FERNANDEZ, SOLEDADd 1154179a473a3,26 km18:23 min
06:26:18ALVAREZ RODRIGUEZ, MARIA JOSEd 1150180a474a3,26 km18:23 min
06:27:24del Pino Blasco, Nuria Montserratd 1130181a475a3,25 km18:26 min
06:27:29Lagman Serran, Nenad 1221182a476a3,25 km18:27 min
06:36:24BONILLA SAIZ, ANDRESd 16102954773,18 km18:52 min
06:36:28BELTRAN MANGRANE, M. CINTAd 1609183a478a3,18 km18:52 min
06:56:06Fontalba Romero, Anad 1182184a479a3,03 km19:48 min
06:56:10Fontalba Romero, Josefinad 1183185a480a3,03 km19:49 min saltar saltar
08:12:53PRATS GUILLEN, MARTAd 1600186a481a2,56 km23:28 min saltar saltar
08:12:58LARRAZ MITJANS, LIDIAd 1599187a482a2,56 km23:28 min saltar saltar


Informaci general   Notcies, activitats   Marxa del Garraf   Articles   Contactar